This is the latest recevied weather packets stored in our database for station/object HK4RAU-80. If no packets are shown the sender has not sent any weather packets the latest 1 day(s).
| Time | Temp. | Humidity | Pressure | Rain* | Wind** | Luminosity | Snow |
|---|---|---|---|---|---|---|---|
| 1778194476 | 16.67° C | 90% | 1014 hPa | 0 mm | - | - | - |
| 1778194103 | 16.67° C | 90% | 1014 hPa | 0 mm | - | - | - |
| 1778193735 | 16.67° C | 90% | 1014 hPa | 0 mm | - | - | - |
| 1778193357 | 16.67° C | 90% | 1014 hPa | 0 mm | - | - | - |
| 1778192796 | 18.89° C | 75% | 1013 hPa | 0 mm | - | - | - |
| 1778192242 | 18.33° C | 75% | 1013 hPa | 0 mm | - | - | - |
| 1778191868 | 18.33° C | 75% | 1013 hPa | 0 mm | - | - | - |
| 1778190948 | 18.33° C | 75% | 1013 hPa | 0 mm | - | - | - |
| 1778190580 | 18.89° C | 75% | 1013 hPa | 0 mm | - | - | - |
| 1778190212 | 17.78° C | 75% | 1013 hPa | 0 mm | - | - | - |
| 1778189837 | 18.33° C | 75% | 1013 hPa | 0 mm | - | - | - |
| 1778189656 | 17.78° C | 75% | 1013 hPa | 0 mm | - | - | - |
| 1778188925 | 17.78° C | 80% | 1013 hPa | 0 mm | - | - | - |
| 1778187803 | 20° C | 80% | 1013 hPa | 0 mm | - | - | - |
| 1778187238 | 20° C | 80% | 1013 hPa | 0 mm | - | - | - |
| 1778186304 | 20° C | 80% | 1013 hPa | 0 mm | - | - | - |
| 1778185931 | 20° C | 80% | 1013 hPa | 0 mm | - | - | - |
| 1778183270 | 20° C | 84% | 1014 hPa | 0 mm | - | - | - |
| 1778183088 | 20° C | 84% | 1014 hPa | 0 mm | - | - | - |
| 1778182141 | 20° C | 78% | 1014 hPa | 0 mm | - | - | - |
| 1778180215 | 20.56° C | 78% | 1014 hPa | 0 mm | - | - | - |
| 1778179847 | 20.56° C | 78% | 1014 hPa | 0 mm | - | - | - |
| 1778179474 | 20.56° C | 78% | 1014 hPa | 0 mm | - | - | - |
| 1778178726 | 20.56° C | 69% | 1011 hPa | 0 mm | - | - | - |
| 1778178166 | 20.56° C | 61% | 1013 hPa | 0 mm | - | - | - |
* Rain latest hour (hover to see other rain measurements)
** Current wind speed in m/s (hover to see current wind gust speed)